TimeCDT,TemperatureF,Dew PointF,Humidity,Sea Level PressureIn,VisibilityMPH,Wind Direction,Wind SpeedMPH,Gust SpeedMPH,PrecipitationIn,Events,Conditions,WindDirDegrees,DateUTC
12:53 AM,73.0,70.0,90,30.07,10.0,ENE,5.8,-,N/A,,Clear,60,2013-07-15 05:53:00
1:53 AM,73.0,70.0,90,30.08,10.0,ENE,5.8,-,N/A,,Clear,70,2013-07-15 06:53:00
2:53 AM,72.0,70.0,93,30.08,10.0,NE,4.6,-,N/A,,Clear,50,2013-07-15 07:53:00
3:53 AM,73.0,70.0,90,30.08,10.0,ENE,5.8,-,N/A,,Clear,70,2013-07-15 08:53:00
4:53 AM,72.0,70.0,93,30.10,10.0,NE,3.5,-,N/A,,Clear,50,2013-07-15 09:53:00
5:53 AM,72.0,70.0,93,30.12,10.0,NE,3.5,-,N/A,,Scattered Clouds,40,2013-07-15 10:53:00
6:53 AM,75.0,71.1,87,30.14,10.0,ENE,3.5,-,N/A,,Overcast,60,2013-07-15 11:53:00
7:53 AM,77.0,72.0,84,30.15,10.0,Calm,Calm,-,N/A,,Overcast,0,2013-07-15 12:53:00
8:53 AM,79.0,72.0,79,30.17,10.0,ESE,8.1,-,N/A,,Overcast,120,2013-07-15 13:53:00
9:53 AM,78.1,73.0,84,30.18,6.0,SE,6.9,-,0.00,Rain,Light Rain,130,2013-07-15 14:53:00
10:32 AM,80.6,73.4,79,30.19,10.0,East,5.8,-,0.00,,Overcast,100,2013-07-15 15:32:00
10:53 AM,82.0,73.9,76,30.18,10.0,ESE,6.9,-,0.00,,Mostly Cloudy,110,2013-07-15 15:53:00
11:06 AM,82.4,73.4,74,30.19,10.0,ESE,9.2,-,N/A,,Overcast,120,2013-07-15 16:06:00
11:53 AM,84.0,73.0,69,30.17,10.0,SE,11.5,-,N/A,,Mostly Cloudy,130,2013-07-15 16:53:00
12:19 PM,86.0,73.4,66,30.17,10.0,East,8.1,-,N/A,,Scattered Clouds,100,2013-07-15 17:19:00
12:53 PM,87.1,72.0,61,30.15,10.0,ESE,11.5,-,N/A,,Scattered Clouds,120,2013-07-15 17:53:00
1:53 PM,89.1,71.1,55,30.13,10.0,ESE,10.4,18.4,N/A,,Mostly Cloudy,120,2013-07-15 18:53:00
2:22 PM,89.6,71.6,55,30.14,10.0,ESE,11.5,18.4,N/A,Thunderstorm,Mostly Cloudy,120,2013-07-15 19:22:00
2:43 PM,84.2,71.6,66,30.14,10.0,SSW,11.5,20.7,N/A,,Mostly Cloudy,210,2013-07-15 19:43:00
2:53 PM,81.0,72.0,74,30.14,10.0,SSW,6.9,-,N/A,,Overcast,210,2013-07-15 19:53:00
3:53 PM,87.1,73.0,63,30.12,10.0,South,8.1,-,N/A,,Clear,180,2013-07-15 20:53:00
4:53 PM,89.1,73.0,59,30.09,10.0,South,6.9,-,N/A,,Partly Cloudy,190,2013-07-15 21:53:00
5:53 PM,81.0,70.0,69,30.12,10.0,East,13.8,-,N/A,,Mostly Cloudy,90,2013-07-15 22:53:00
6:02 PM,80.6,71.6,74,30.13,10.0,East,10.4,-,N/A,,Scattered Clouds,80,2013-07-15 23:02:00
6:53 PM,81.0,71.1,72,30.12,10.0,ENE,6.9,-,N/A,,Partly Cloudy,70,2013-07-15 23:53:00
7:53 PM,82.0,72.0,71,30.13,10.0,East,5.8,-,N/A,,Clear,100,2013-07-16 00:53:00
8:53 PM,80.1,73.0,79,30.15,10.0,ENE,6.9,-,N/A,,Scattered Clouds,70,2013-07-16 01:53:00
9:53 PM,79.0,72.0,79,30.18,10.0,ENE,6.9,-,N/A,,Mostly Cloudy,70,2013-07-16 02:53:00
10:53 PM,77.0,72.0,84,30.19,10.0,East,4.6,-,N/A,,Partly Cloudy,80,2013-07-16 03:53:00
11:53 PM,75.9,72.0,87,30.18,10.0,ENE,4.6,-,N/A,,Partly Cloudy,60,2013-07-16 04:53:00